Location: Bottenau
(48.5138°N, 8.0462°E)
Time: 02:35:05
(UTC+00:00)

ATLAS 3B R/B - Pass Details

Date: 04 August 2021
Orbit: 1001 x 1194 km, 63.8° (Epoch: 09 September)

Event Time Altitude Azimuth Distance (km) Brightness Sun altitude
Rises 19:38:47 0° 315° (NW) 3,925 7.9 -6.3°
Reaches altitude 10° 19:41:40 10° 307° (NW) 2,993 6.9 -6.7°
Maximum altitude 19:47:55 34° 245° (WSW) 1,796 4.2 -7.5°
Drops below altitude 10° 19:54:23 10° 184° (S) 3,084 4.8 -8.4°
Sets 19:57:24 0° 176° (S) 4,059 5.3 -8.7°
